Theta_e
342 340 338 337 339 344 346 344 338 330 329 330 329 336 335 334 334 336 334 325 330 330 329 330 331 331 330 329 330 332 335 331 333 339 341 345 346 347
338 339 338 336 337 337 343 344 341 338 332 332 331 334 334 332 333 339 337 331 328 329 328 328 329 329 329 328 328 330 331 333 335 333 335 337 337 336
338 339 338 339 334 335 336 341 340 338 335 329 333 334 335 335 334 337 335 338 328 325 329 328 327 327 327 326 326 325 326 329 331 332 332 332 332 331
338 337 337 332 337 337 335 341 340 339 335 331 331 330 333 336 334 334 332 333 334 327 329 328 327 326 325 325 325 325 324 323 324 326 328 328 326 326
341 337 336 334 335 332 333 337 338 335 336 332 328 329 330 331 330 331 331 332 329 326 326 327 327 327 326 325 323 321 320 321 322 320 322 324 323 320
341 338 337 334 334 334 333 335 334 335 333 332 329 327 327 329 330 325 324 327 325 322 318 321 322 322 324 323 322 322 319 318 317 320 319 318 319 320
341 337 335 335 333 333 330 333 334 330 329 328 326 325 324 323 324 324 324 323 325 326 323 321 322 319 319 321 320 321 320 320 318 317 318 318 317 319
335 336 333 332 330 329 328 331 334 334 334 326 324 324 326 323 323 321 322 320 316 325 324 320 322 318 321 321 317 321 320 318 317 317 316 316 318 318
330 330 330 328 335 334 329 327 328 331 334 336 331 329 327 325 327 324 325 324 321 321 323 317 321 318 322 320 318 319 318 317 316 315 314 314 314 313
333 330 333 333 335 335 334 331 331 330 332 330 334 334 332 328 329 328 327 327 323 321 324 314 320 321 323 323 320 318 317 315 314 313 313 312 311 309
335 334 335 335 331 330 334 332 332 331 326 328 330 327 326 326 327 322 319 318 315 317 322 318 319 321 322 322 323 317 316 314 312 312 311 311 309 308
334 335 329 331 325 325 333 333 330 330 330 329 328 323 324 324 324 330 324 319 318 316 322 317 318 320 317 323 323 321 318 313 312 311 311 310 308 320
334 331 332 325 319 321 323 333 330 333 331 331 328 323 323 325 325 328 330 324 320 319 322 322 319 320 320 318 322 322 319 316 316 315 312 309 308 310
336 337 333 321 318 319 321 323 321 327 330 328 324 321 322 323 325 328 330 329 329 329 328 326 322 320 320 317 316 321 318 317 316 314 316 313 311 312
337 334 325 316 313 316 316 318 319 328 328 324 322 321 322 324 330 330 331 332 331 329 325 327 323 325 321 319 317 316 314 315 316 313 314 316 315 317
329 330 325 319 319 321 320 319 325 326 324 326 323 323 325 326 327 328 327 327 325 325 327 329 328 327 321 322 319 316 316 312 313 313 315 315 315 316
325 325 322 319 319 323 324 323 324 325 323 326 324 325 325 325 325 328 328 327 322 322 322 322 326 326 324 324 317 317 315 313 312 313 316 312 314 315
322 322 321 320 321 326 324 322 324 325 326 326 326 325 323 324 324 326 327 324 321 322 322 322 320 318 318 320 320 315 314 312 313 314 316 312 311 314
324 323 322 322 323 326 325 323 322 326 331 328 327 327 327 326 323 323 323 323 321 322 323 323 320 319 315 312 316 311 311 314 313 311 313 312 311 313
323 325 324 323 323 323 326 324 324 325 325 321 321 321 323 322 323 324 323 322 322 323 323 321 321 320 317 316 316 316 306 314 312 311 311 313 314 314
323 325 327 325 325 326 325 327 327 324 323 318 317 317 318 320 322 323 322 314 318 324 321 321 323 319 321 316 313 314 314 306 310 314 313 311 310 311
325 324 327 327 326 326 325 325 328 324 322 316 316 317 317 317 317 319 322 322 321 323 323 324 319 317 315 314 315 312 312 316 312 308 308 309 311 307
327 327 328 330 329 329 327 328 324 328 322 318 316 318 316 314 315 318 319 322 322 322 323 319 317 316 315 314 312 314 310 312 312 311 312 310 310 309
Wind_Speed
4 5 4 4 4 4 5 7 6 6 8 6 5 6 4 5 3 4 4 5 5 5 6 8 9 10 13 15 17 19 19 23 24 24 21 18 16 14
4 5 4 3 4 4 5 7 6 5 4 4 5 7 5 4 5 4 3 4 3 3 4 6 7 8 9 11 13 15 16 16 15 15 15 14 13 12
5 6 6 4 4 4 4 5 6 6 5 4 4 6 5 5 4 2 3 4 5 1 2 3 4 7 8 8 9 11 13 13 12 11 11 11 11 8
8 7 7 5 5 4 5 6 6 5 4 8 6 6 6 6 5 4 3 3 3 7 6 4 4 4 6 7 9 9 7 6 7 7 7 7 7 8
8 9 8 7 7 4 5 6 6 6 4 5 7 6 5 6 6 5 4 4 5 9 10 10 9 8 8 8 9 9 10 9 5 1 1 2 2 2
9 9 9 9 8 7 6 6 5 7 5 6 7 8 6 4 4 6 6 4 4 6 7 7 6 7 7 6 8 9 9 10 10 7 5 5 5 5
9 8 9 9 8 7 6 7 8 7 8 8 8 8 7 7 7 5 5 5 4 2 3 3 2 3 4 6 6 7 6 6 5 6 6 5 7 7
7 10 9 11 11 11 10 10 11 11 9 9 9 9 8 6 5 7 6 6 5 3 4 3 0 3 2 3 4 6 8 8 9 9 7 5 5 7
12 12 10 10 11 10 11 10 9 8 12 11 11 10 8 8 7 6 6 6 3 5 4 3 2 3 2 3 2 3 7 8 10 9 8 8 8 8
13 16 14 12 12 12 12 11 10 10 8 8 11 10 8 10 9 6 8 6 5 4 2 3 3 1 1 2 2 1 5 7 7 8 8 7 8 9
11 12 14 11 10 11 12 14 12 11 5 1 4 10 13 12 9 9 8 7 5 5 4 3 3 1 2 1 2 3 3 5 5 5 10 9 10 10
8 10 15 12 12 14 14 13 13 13 11 9 7 9 13 12 12 6 8 5 5 5 5 5 3 2 2 2 2 1 4 4 6 4 6 7 9 7
8 9 9 15 16 14 14 13 11 12 11 12 10 9 11 11 9 6 6 5 5 3 6 5 4 3 2 3 2 2 3 5 5 4 4 3 7 5
13 9 9 14 14 13 14 9 13 14 11 11 12 11 11 11 10 9 8 6 3 1 6 7 3 3 3 5 3 0 4 4 3 6 6 5 5 7
8 10 12 18 16 13 16 14 15 12 11 12 12 12 12 10 9 8 7 7 6 5 5 8 6 4 5 6 4 4 4 5 3 6 6 6 7 6
5 7 11 14 14 13 13 11 11 10 9 11 11 11 10 9 9 8 8 8 6 6 8 9 8 7 6 6 4 5 5 5 5 5 6 6 6 5
8 6 7 7 10 13 13 13 12 9 9 11 10 9 9 10 9 8 8 8 7 7 7 6 6 6 5 7 5 4 4 5 4 4 6 6 6 5
8 9 9 10 12 15 15 14 13 15 12 11 10 10 9 10 10 9 8 8 9 7 7 6 6 4 4 8 8 4 3 3 3 4 6 6 6 6
7 10 11 12 12 14 15 15 15 14 14 11 11 10 10 9 10 10 10 9 8 8 7 6 6 6 6 6 6 10 3 1 3 5 5 6 7 7
9 9 11 12 11 11 14 14 14 14 14 11 10 10 10 9 11 10 10 11 9 8 7 7 7 7 7 4 2 3 10 3 3 5 5 5 7 6
11 11 10 11 11 11 12 13 15 14 15 12 11 10 9 7 10 10 9 11 10 8 9 9 7 3 4 3 5 2 4 13 7 6 6 7 7 5
10 12 11 11 12 11 10 10 12 15 15 12 12 10 10 11 10 12 10 10 10 10 9 5 7 7 7 7 2 3 3 1 10 14 16 12 7 8
11 11 11 11 11 12 12 12 12 14 15 14 13 13 12 10 8 9 11 11 11 10 9 8 7 6 6 7 2 2 4 5 4 5 6 16 16 17
Wind_Direction
193 183 199 177 188 209 210 199 196 185 189 174 168 187 178 174 131 139 143 121 101 78 63 52 47 43 41 36 36 35 41 48 49 55 60 71 82 84
222 198 210 195 196 206 213 211 221 230 168 152 178 162 174 170 150 184 173 182 145 97 60 48 43 44 46 40 35 39 43 50 65 75 74 79 78 92
210 212 216 207 219 216 227 217 206 211 204 133 147 143 158 181 145 175 185 185 163 100 7 31 44 41 40 42 46 45 39 41 49 63 74 77 85 96
204 202 219 216 227 206 213 211 206 192 179 157 143 157 165 144 123 123 139 147 161 75 52 58 90 57 35 31 28 34 44 53 50 52 63 70 81 86
211 206 203 203 218 211 211 196 190 185 179 163 147 163 145 159 140 125 123 118 125 119 105 79 66 58 57 60 49 39 32 24 358 1 104 110 111 124
210 218 215 202 212 208 210 203 189 189 175 171 159 158 166 154 184 158 150 140 134 120 77 76 68 77 67 70 52 39 27 21 19 7 298 264 249 244
244 220 221 216 194 208 215 204 181 187 175 169 160 164 166 169 186 171 177 147 136 148 131 122 110 94 102 88 90 61 37 26 15 11 3 297 269 265
258 256 228 205 205 191 207 196 183 168 168 169 168 173 160 174 163 174 175 182 172 147 203 136 133 136 99 78 40 20 16 359 349 345 343 335 305 274
178 236 235 210 201 200 183 180 197 209 169 167 168 171 161 174 158 166 168 192 199 129 211 153 201 198 211 163 210 1 359 341 333 337 348 340 323 305
178 198 205 205 201 193 188 176 190 200 195 183 174 167 160 156 165 162 155 142 131 135 162 184 182 137 241 231 141 329 328 327 338 357 352 336 312 300
198 196 201 203 181 185 197 185 184 198 160 269 143 135 136 148 154 150 157 169 148 147 166 253 137 4 226 189 37 134 278 294 336 339 348 344 336 301
198 205 205 194 171 177 201 200 184 188 188 171 159 139 151 153 172 198 165 166 143 161 153 228 166 280 194 179 318 18 359 59 318 332 325 335 346 327
194 204 209 189 165 190 213 202 191 167 176 177 172 167 170 167 179 193 190 188 169 156 145 217 188 189 256 307 263 245 336 11 12 357 321 24 345 342
203 203 194 181 184 192 207 170 148 166 173 176 175 183 183 180 186 189 189 207 198 182 149 214 226 231 264 285 295 120 346 346 357 351 338 329 260 202
208 198 182 179 177 187 205 165 169 191 182 186 188 188 193 189 177 181 192 198 207 199 198 213 242 216 247 268 297 318 329 0 4 348 333 330 340 330
212 194 181 172 181 200 188 181 201 196 189 196 197 191 191 182 189 191 200 194 207 200 204 220 226 222 240 251 276 305 343 336 339 340 329 308 323 324
170 162 169 172 185 202 198 195 200 189 196 194 197 190 189 193 193 187 206 187 206 200 188 186 200 231 241 270 256 298 336 328 335 346 300 324 316 320
171 187 188 191 194 199 197 196 195 194 198 194 197 195 192 198 193 183 191 198 206 208 212 189 186 194 219 212 241 277 329 334 333 321 285 301 316 331
201 197 196 194 202 201 198 196 196 196 193 197 197 199 198 200 188 189 190 202 211 219 213 194 202 213 245 274 122 237 316 289 314 304 304 307 310 311
206 201 205 202 201 200 204 200 198 193 193 188 186 186 196 194 200 199 193 200 207 210 209 203 213 207 237 288 260 96 212 278 285 304 307 303 292 257
212 216 206 204 208 211 204 199 196 194 196 182 183 181 180 181 212 201 195 204 202 206 213 211 211 131 154 170 209 160 135 213 255 289 305 296 301 309
205 211 211 204 204 204 204 207 204 191 190 184 182 183 189 187 195 209 203 205 205 213 220 175 151 170 186 227 258 132 212 256 202 221 238 253 292 305
211 207 210 212 204 205 199 204 197 207 191 188 185 183 191 190 200 213 216 206 212 206 202 183 177 185 204 223 250 215 183 235 279 294 267 200 229 249